User: anonymous   Login
Location: Bridgewater Hill Observatory
(43.5992°N, 72.6989°W)
Time: 18:17:23
(UTC-04:00)
Language:

Cosmos 1452 Rocket - Orbit

View from above orbital plane
View from above orbital plane
View from above satellite
View from above satellite

Ground track
Ground track

The orbit data is extracted from the following two-line orbital elements,

1 13992U 83031B   17288.79468309 +.00000039 +00000-0 +22507-4 0  9993
2 13992 074.0521 145.9410 0004048 099.7675 308.1702 14.36096545805836
Epoch (UTC): 15 October 2017 19:04:20
Eccentricity: 0.0004048
inclination: 74.0521°
perigee height: 768 km
apogee height: 774 km
right ascension of ascending node: 145.9410°
argument of perigee: 99.7675°
revolutions per day: 14.36096545
mean anomaly at epoch: 308.1702°
orbit number at epoch: 80583

The dashed part of the orbit path shows where the satellite is in the earth's shadow,  

DLR